• Join FlightAware (Why Join?)
  • Login
  • US Flag 
08:47PM EST


 

Airport Tracker/Info


-or-


 

Live Flight TrackerFlight Track Log ✈ SWA385 ✈ 18-May-2013 ✈ KALB - KBWI

Flight Track Log - Related Links

Times and Time Zones

All times are in EDT time to prevent confusion due to time zone crossing. See the SWA385 flight status page for this flight to view local times or setup timezone preferences in your user account.

Time Position Orientation Groundspeed Altitude Reporting Facility
EDT Latitude Longitude Course Direction KTS MPH feet Rate Location/Type
08:51AM 42.7672 -73.8061 319° Northwest 156 180 1,400  Level Boston Center
08:53AM 42.8106 -73.8581 319° Northwest 216 249 4,000 2,766 Climbing Boston Center
08:54AM 42.8281 -73.9433 286° West 245 282 7,300 2,832 Climbing Boston Center
08:55AM 42.8458 -74.0258 286° West 249 287 9,900 1,790 Climbing Boston Center
08:56AM 42.8383 -74.1078 263° West 234 269 11,000 2,600 Climbing Boston Center
08:57AM 42.7972 -74.2114 242° Southwest 263 303 15,100 3,650 Climbing Boston Center
08:58AM 42.7481 -74.2919 230° Southwest 303 349 18,300 2,750 Climbing Boston Center
08:59AM 42.6461 -74.2664 170° South 282 325 20,600 2,250 Climbing Boston Center
09:00AM 42.5514 -74.1958 151° Southeast 328 377 22,800 2,750 Climbing Boston Center
09:01AM 42.4464 -74.1142 150° Southeast 380 437 26,100 2,600 Climbing Boston Center
09:02AM 42.3392 -74.0328 151° Southeast 409 471 28,000 950 Climbing Boston Center
09:03AM 42.2050 -73.9311 151° Southeast 470 541 28,000  Level Boston Center
09:04AM 42.0628 -73.8242 151° Southeast 494 568 28,000  Level Boston Center
09:05AM 41.9450 -73.7381 151° Southeast 494 568 28,000  Level Boston Center
09:06AM 41.8231 -73.6436 150° Southeast 494 568 28,000  Level Boston Center
09:07AM 41.6964 -73.5994 165° South 493 567 28,000  Level Boston Center
09:09AM 41.4383 -73.5856 178° South 463 533 28,000  Level New York Center
09:10AM 41.3114 -73.5858 180° South 457 526 28,000  Level New York Center
09:11AM 41.2217 -73.6786 218° Southwest 412 474 28,000  Level New York Center
09:12AM 41.1542 -73.7969 233° Southwest 400 460 28,000  Level New York Center
09:13AM 41.0864 -73.9122 232° Southwest 400 460 28,000 -252 Level New York Center
09:14AM 41.0119 -74.0461 234° Southwest 414 476 27,500 -756 Descending New York Center
09:15AM 40.9339 -74.1578 227° Southwest 414 476 26,500 -750 Descending New York Center
09:16AM 40.8767 -74.2592 233° Southwest 408 470 26,000 -248 Descending New York Center
09:17AM 40.8089 -74.3708 231° Southwest 402 463 26,000  Level New York Center
09:18AM 40.7408 -74.4822 231° Southwest 397 457 26,000 -403 Level New York Center
09:19AM 40.6728 -74.5936 231° Southwest 397 457 25,200 -950 Descending New York Center
09:20AM 40.5822 -74.6786 215° Southwest 402 463 24,100 -1,131 Descending New York Center
09:21AM 40.4875 -74.7769 218° Southwest 405 466 22,900 -1,119 Descending New York Center
09:22AM 40.4253 -74.8878 234° Southwest 391 450 21,900 -966 Descending New York Center
09:23AM 40.3608 -74.9956 232° Southwest 391 450 21,000 -942 Descending New York Center
09:24AM 40.2989 -75.1006 232° Southwest 380 437 20,000 -992 Descending New York Center
09:25AM 40.2344 -75.2028 230° Southwest 375 432 19,000 -942 Descending New York Center
09:26AM 40.1789 -75.2969 232° Southwest 375 432 18,100 -807 Descending New York Center
09:27AM 40.1100 -75.4064 231° Southwest 370 426 17,400 -814 Descending New York Center
09:28AM 40.0483 -75.4892 226° Southwest 365 420 16,500 -694 Descending New York Center
09:29AM 39.9733 -75.5925 227° Southwest 359 413 16,000 -248 Descending New York Center
09:30AM 39.9236 -75.6836 235° Southwest 359 413 16,000  Level New York Center
09:31AM 39.8625 -75.7958 235° Southwest 359 413 16,000 -942 Level New York Center
09:33AM 39.7333 -76.0167 233° Southwest 335 386 13,000 -1,304 Descending Potomac TRACON
09:34AM 39.7000 -76.1000 243° Southwest 319 367 12,000 -1,158 Descending Potomac TRACON
09:35AM 39.6667 -76.2000 247° West 284 327 10,800 -1,421 Descending Potomac TRACON
09:36AM 39.6500 -76.2833 255° West 282 325 9,300 -1,579 Descending Potomac TRACON
09:37AM 39.6333 -76.3833 258° West 274 315 7,800 -1,450 Descending Potomac TRACON
09:38AM 39.6333 -76.4833 270° West 273 314 6,400 -947 Descending Potomac TRACON
09:39AM 39.6167 -76.5667 255° West 264 304 6,000 -209 Descending Potomac TRACON
09:40AM 39.6000 -76.6667 258° West 262 302 6,000 -157 Level Potomac TRACON
09:41AM 39.5667 -76.7333 237° Southwest 257 296 5,700 -526 Descending Potomac TRACON
09:42AM 39.5333 -76.8000 237° Southwest 239 275 5,000 -400 Descending Potomac TRACON
09:43AM 39.5000 -76.8667 237° Southwest 216 249 4,900 -500 Descending Potomac TRACON
09:44AM 39.4667 -76.9167 229° Southwest 223 257 4,000 -474 Descending Potomac TRACON
09:45AM 39.4167 -76.9000 166° South 196 226 4,000  Level Potomac TRACON
09:46AM 39.3833 -76.8667 142° Southeast 195 224 4,000 -100 Level Potomac TRACON
09:47AM 39.3333 -76.8167 142° Southeast 183 211 3,800 -550 Descending Potomac TRACON
09:48AM 39.3000 -76.7833 142° Southeast 166 191 2,900 -850 Descending Potomac TRACON
09:49AM 39.2667 -76.7500 142° Southeast 155 178 2,100 -783 Descending Potomac TRACON
09:50AM 39.2333 -76.7333 159° South 140 161 1,400 -744 Descending Potomac TRACON
09:51AM 39.2000 -76.7000 142° Southeast 125 144 600 -727 Descending Potomac TRACON